Regional Weather Roundup
Issued by NWS

Home | Current Version | Previous Version | Text Only | Print | Product List | Glossary Off
Versions: 1 2 3 4 5 6 7 8 9 10 11 12 13 14 15 16 17 18 19 20 21 22 23 24 25 26 27 28 29 30 31 32 33 34 35 36 37 38 39 40 41 42 43 44 45 46 47 48 49 50

000
ASUS45 KABQ 241601
RWRNM
WEATHER ROUNDUP FOR NEW MEXICO
NATIONAL WEATHER SERVICE ALBUQUERQUE NM
900 AM MST WED DEC 24 2014

NOTE: "FAIR" MEANS FEW OR NO CLOUDS BELOW 12,000 FEET AGL WITH NO
       SIGNIFICANT WEATHER OR OBSTRUCTIONS TO VISION.

      THIS PRODUCT IS RELEASED AS TWO VERSIONS.  ONE VERSION NEAR
      THE TOP OF THE HOUR CONTAINING PRELIMINARY DATA FROM ALBUQUERQUE
      AND OTHER STATIONS.  A FINAL VERSION WITH ADDITIONAL DATA IS
      ISSUED ABOUT 10 MINUTES AFTER THE HOUR.

NMZ501-503-504-510>518-241700-
NORTHWEST PLATEAU/NORTHCENTRAL MOUNTAINS

CITY           SKY/WX    TMP DP  RH WIND       PRES   REMARKS
FARMINGTON     SUNNY     21  10  62 E8        30.19S WCI  11
SANTA FE       SUNNY     21   6  52 N9        30.13R WCI  11
TAOS           SUNNY     12   3  67 CALM      30.14S
ANGEL FIRE     FAIR      11  -1  59 NW8       30.06F WCI  -1

$$
NMZ402-403-502-505>509-241700-
WESTCENTRAL MOUNTAINS/SOUTHWEST MOUNTAINS

CITY           SKY/WX    TMP DP  RH WIND       PRES   REMARKS
GALLUP         SUNNY     22  13  68 CALM      30.21R
GRANTS         SUNNY     22  12  65 W3        30.20S
SILVER CITY    SUNNY     32   9  37 N6        30.22R WCI  26

$$
NMZ407-409-411-412-241700-
SOUTHERN DESERTS

CITY           SKY/WX    TMP DP  RH WIND       PRES   REMARKS
LORDSBURG      FAIR      32  14  47 SE3       30.23S
DEMING         SUNNY     32  11  41 CALM      30.23R
HOLLOMAN AFB   MOSUNNY   31  17  56 S5        30.23R WCI  27
ALAMOGORDO     SUNNY     32  16  51 S5        30.24R WCI  27
T OR C         SUNNY     33   7  33 N10       30.19S WCI  25

$$
NMZ519>523-241700-
CENTRAL VALLEYS/CENTRAL HIGHLANDS

CITY           SKY/WX    TMP DP  RH WIND       PRES   REMARKS
ALBUQUERQUE    MOSUNNY   27  13  55 CALM      30.19S
DOUBLE EAGLE   SUNNY     27  10  50 CALM      30.17S
MORIARTY ARPT  FAIR      25  15  63 NW8       30.14R WCI  17
CLINES CORNERS SUNNY     21  11  65 W18       30.03S WCI   6
BELEN          FAIR      29  13  50 CALM      30.20R
SOCORRO        FAIR      30   9  41 CALM      30.21S

$$
NMZ524>526-539-540-241700-
SOUTHCENTRAL MOUNTAINS

CITY           SKY/WX    TMP DP  RH WIND       PRES   REMARKS
RUIDOSO        SUNNY     27   7  43 W8        30.11R WCI  18

$$
NMZ527>531-241700-
NORTHEAST HIGHLANDS/NORTHEAST PLAINS

CITY           SKY/WX    TMP DP  RH WIND       PRES   REMARKS
LAS VEGAS      SUNNY     21   9  59 W3        30.01S
RATON          MOSUNNY    8   1  73 NE8       30.01S WCI  -4
CLAYTON        SUNNY     28  11  48 SW12      30.02S WCI  18

$$
NMZ532>537-241700-
EASTCENTRAL PLAINS

CITY           SKY/WX    TMP DP  RH WIND       PRES   REMARKS
TUCUMCARI      SUNNY     31  16  54 SW8       30.09F WCI  23
CANNON AFB     SUNNY     33  15  46 W13       30.12S WCI  24
CLOVIS AIRPORT SUNNY     34  18  51 W12       30.12R WCI  25

$$
NMZ028-029-538-241700-
SOUTHEAST PLAINS

CITY           SKY/WX    TMP DP  RH WIND       PRES   REMARKS
ROSWELL        SUNNY     34  21  59 VRB5      30.18S WCI  30
ARTESIA        SUNNY     36  21  55 SW8       30.21S WCI  29
CARLSBAD       SUNNY     40  21  46 S14       30.21S WCI  32
HOBBS          SUNNY     36  19  51 W12       30.21R WCI  27


$$



USA.gov is the U.S. government's official web portal to all federal, state and local government web resources and services.